Location: Austin
(30.3000°N, 97.7500°W)
Time: 20:18:15
(UTC-05:00)

Cosmos 1833 Rocket - Pass Details

Date: 01 August 2025
Orbit: 831 x 839 km, 71.0° (Epoch: 19 May)

Event Time Altitude Azimuth Distance (km) Brightness Sun altitude
Rises 06:14:00 0° 180° (S) 3,362 5.6 -7.9°
Reaches altitude 10° 06:16:33 10° 173° (S) 2,431 4.9 -7.4°
Maximum altitude 06:21:44 40° 104° (ESE) 1,199 4.0 -6.4°
Drops below altitude 10° 06:26:55 10° 36° (NE) 2,439 6.2 -5.4°
Sets 06:29:28 0° 29° (NNE) 3,376 6.8 -4.9°
